Index of /wp-content/uploads/2021/03/

NameLast ModifiedSize
UpParent Directory
[IMG]1112-100x100.jpg2021-03-26 22:36 4k
[IMG]1112-300x300.jpg2021-03-26 22:36 12k
[IMG]1112.jpg2021-03-26 22:36 64k
[IMG]112-100x100.jpg2021-03-26 21:48 3k
[IMG]112-300x300.jpg2021-03-26 21:48 9k
[IMG]112.jpg2021-03-26 21:48 34k
[IMG]2-100x100.jpg2021-03-26 20:54 3k
[IMG]2-300x300.jpg2021-03-26 20:54 9k
[IMG]2.jpg2021-03-26 20:54 44k
[IMG]2111-100x100.jpg2021-03-26 22:36 4k
[IMG]2111-300x300.jpg2021-03-26 22:36 12k
[IMG]2111.jpg2021-03-26 22:36 64k
[IMG]2222-100x100.jpg2021-03-26 22:36 3k
[IMG]2222-300x300.jpg2021-03-26 22:36 11k
[IMG]2222.jpg2021-03-26 22:36 50k
[IMG]233-100x100.jpg2021-03-26 21:48 3k
[IMG]233-300x300.jpg2021-03-26 21:48 9k
[IMG]233.jpg2021-03-26 21:48 39k
[IMG]2s-100x100.jpg2021-03-26 20:54 3k
[IMG]2s-300x300.jpg2021-03-26 20:54 8k
[IMG]2s.jpg2021-03-26 20:54 46k
[IMG]2بببب-100x100.jpg2021-03-26 21:25 3k
[IMG]2بببب-300x300.jpg2021-03-26 21:25 8k
[IMG]2بببب.jpg2021-03-26 21:25 38k
[IMG]2سس-1-100x100.jpg2021-03-26 21:25 3k
[IMG]2سس-1-300x300.jpg2021-03-26 21:25 9k
[IMG]2سس-1.jpg2021-03-26 21:25 47k
[IMG]2سس-100x100.jpg2021-03-26 20:54 3k
[IMG]2سس-300x300.jpg2021-03-26 20:54 9k
[IMG]2سس.jpg2021-03-26 20:54 37k
[IMG]4-features-of-Speeddam-CCTV-camera-that-you-should-pay-attention-to-when-buyi...2021-03-02 06:13 4k
[IMG]4-features-of-Speeddam-CCTV-camera-that-you-should-pay-attention-to-when-buyi...2021-03-02 06:13 9k
[IMG]4-features-of-Speeddam-CCTV-camera-that-you-should-pay-attention-to-when-buyi...2021-03-02 06:13 26k
[IMG]4-features-of-Speeddam-CCTV-camera-that-you-should-pay-attention-to-when-buyi...2021-03-02 06:13 22k
[IMG]CCTV-camera-viewing-angles-100x100.jpg2021-03-24 07:06 5k
[IMG]CCTV-camera-viewing-angles-300x166.jpg2021-03-24 07:06 15k
[IMG]CCTV-camera-viewing-angles-600x499.jpg2021-03-24 07:06 57k
[IMG]CCTV-camera-viewing-angles-768x426.jpg2021-03-24 07:06 61k
[IMG]CCTV-camera-viewing-angles-800x444.jpg2021-03-24 07:06 64k
[IMG]CCTV-camera-viewing-angles.jpg2021-03-24 07:06 56k
[IMG]cctv-cost-100x100.jpg2021-03-26 18:14 5k
[IMG]cctv-cost-300x297.jpg2021-03-26 18:14 16k
[IMG]cctv-cost-600x600.jpg2021-03-26 18:14 41k
[IMG]cctv-cost.jpg2021-03-26 18:14 36k
[IMG]Cheap-or-expensive-CCTV-100x100.jpg2021-03-26 18:02 5k
[IMG]Cheap-or-expensive-CCTV-300x201.jpg2021-03-26 18:02 12k
[IMG]Cheap-or-expensive-CCTV-600x508.jpg2021-03-26 18:02 36k
[IMG]Cheap-or-expensive-CCTV.jpg2021-03-26 18:02 30k
[IMG]d-white-people-thief-smartphone-security-cctv-camera-image-mobile-concept-bac...2021-03-13 21:01 4k
[IMG]d-white-people-thief-smartphone-security-cctv-camera-image-mobile-concept-bac...2021-03-13 21:01 14k
[IMG]d-white-people-thief-smartphone-security-cctv-camera-image-mobile-concept-bac...2021-03-13 21:01 36k
[IMG]d-white-people-thief-smartphone-security-cctv-camera-image-mobile-concept-bac...2021-03-13 21:01 52k
[IMG]d-white-people-thief-smartphone-security-cctv-camera-image-mobile-concept-bac...2021-03-13 21:01 52k
[IMG]d-white-people-thief-smartphone-security-cctv-camera-image-mobile-concept-bac...2021-03-13 21:01 92k
[IMG]HDR-100x100.jpg2021-03-02 06:14 4k
[IMG]HDR-300x88.jpg2021-03-02 06:14 8k
[IMG]HDR-600x299.jpg2021-03-02 06:14 34k
[IMG]HDR-768x224.jpg2021-03-02 06:14 32k
[IMG]HDR-800x234.jpg2021-03-02 06:14 34k
[IMG]HDR.jpg2021-03-02 06:14 36k
[IMG]HR-BTG-N601-100x100.jpg2021-03-31 10:46 3k
[IMG]HR-BTG-N601-300x300.jpg2021-03-31 10:46 8k
[IMG]HR-BTG-N601.jpg2021-03-31 10:46 15k
[IMG]hr-swg0080-100x100.jpg2021-03-31 10:54 3k
[IMG]hr-swg0080-300x300.jpg2021-03-31 10:54 8k
[IMG]hr-swg0080.jpg2021-03-31 10:54 17k
[IMG]HR-SWG1050-100x100.jpg2021-03-31 11:02 3k
[IMG]HR-SWG1050-300x300.jpg2021-03-31 11:02 8k
[IMG]HR-SWG1050.jpg2021-03-31 11:02 17k
[IMG]HR900-AF42N-100x100.jpg2021-03-31 11:06 2k
[IMG]HR900-AF42N-300x300.jpg2021-03-31 11:06 7k
[IMG]HR900-AF42N.jpg2021-03-31 11:06 15k
[IMG]HR900-AF82N-100x100.jpg2021-03-31 11:09 3k
[IMG]HR900-AF82N-300x300.jpg2021-03-31 11:09 10k
[IMG]HR900-AF82N.jpg2021-03-31 11:09 20k
[IMG]HR900-AFGN301-100x100.jpg2021-03-31 10:30 3k
[IMG]HR900-AFGN301-300x300.jpg2021-03-31 10:30 8k
[IMG]HR900-AFGN301.jpg2021-03-31 10:30 16k
[IMG]HR901-AFG82NS-100x100.jpg2021-03-31 11:14 3k
[IMG]HR901-AFG82NS-300x300.jpg2021-03-31 11:14 8k
[IMG]HR901-AFG82NS.jpg2021-03-31 11:14 16k
[IMG]iStock_000028127168Large-100x100.jpg2021-03-13 21:00 3k
[IMG]iStock_000028127168Large-300x225.jpg2021-03-13 21:00 7k
[IMG]iStock_000028127168Large-600x600.jpg2021-03-13 21:00 26k
[IMG]iStock_000028127168Large-768x576.jpg2021-03-13 21:00 27k
[IMG]iStock_000028127168Large-800x600.jpg2021-03-13 21:00 28k
[IMG]iStock_000028127168Large.jpg2021-03-13 21:00 104k
[IMG]LS-XVRDA2004D-100x100.jpg2021-03-28 07:40 3k
[IMG]LS-XVRDA2004D-300x300.jpg2021-03-28 07:40 8k
[IMG]LS-XVRDA2004D.jpg2021-03-28 07:40 17k
[IMG]LS-XVRDA3108DB-100x100.jpg2021-03-28 07:51 3k
[IMG]LS-XVRDA3108DB-300x300.jpg2021-03-28 07:51 8k
[IMG]LS-XVRDA3108DB.jpg2021-03-28 07:51 17k
[IMG]LS-XVRDA3132L-100x100.jpg2021-03-28 07:59 3k
[IMG]LS-XVRDA3132L-300x300.jpg2021-03-28 07:59 8k
[IMG]LS-XVRDA3132L.jpg2021-03-28 07:59 15k
[IMG]mm2-100x100.jpg2021-03-26 18:34 3k
[IMG]mm2-300x300.jpg2021-03-26 18:34 10k
[IMG]mm2.jpg2021-03-26 18:34 51k
[IMG]ori_3740846_guamfkn1d36762pg7mqhnobckbg03okt7ihnpr95_home-cctv-flat-vddector-...2021-03-05 20:30 4k
[IMG]ori_3740846_guamfkn1d36762pg7mqhnobckbg03okt7ihnpr95_home-cctv-flat-vddector-...2021-03-05 20:30 11k
[IMG]ori_3740846_guamfkn1d36762pg7mqhnobckbg03okt7ihnpr95_home-cctv-flat-vddector-...2021-03-05 20:30 35k
[IMG]ori_3740846_guamfkn1d36762pg7mqhnobckbg03okt7ihnpr95_home-cctv-flat-vddector-...2021-03-05 20:30 119k
[IMG]ss2-100x100.jpg2021-03-26 18:35 3k
[IMG]ss2-300x300.jpg2021-03-26 18:35 10k
[IMG]ss2.jpg2021-03-26 18:35 40k
[IMG]what-is-the-field-of-view-of-a-cctv-camera-100x100.jpg2021-03-24 07:31 4k
[IMG]what-is-the-field-of-view-of-a-cctv-camera-300x201.jpg2021-03-24 07:31 14k
[IMG]what-is-the-field-of-view-of-a-cctv-camera-600x508.jpg2021-03-24 07:31 39k
[IMG]what-is-the-field-of-view-of-a-cctv-camera.jpg2021-03-24 07:31 34k
[IMG]what-is-the-field-of-view-of-a-cctv-camera1-100x100.jpg2021-03-24 07:41 5k
[IMG]what-is-the-field-of-view-of-a-cctv-camera1-300x201.jpg2021-03-24 07:41 14k
[IMG]what-is-the-field-of-view-of-a-cctv-camera1-600x508.jpg2021-03-24 07:41 41k
[IMG]what-is-the-field-of-view-of-a-cctv-camera1.jpg2021-03-24 07:41 35k
[IMG]ذذ2-1-100x100.jpg2021-03-26 21:25 3k
[IMG]ذذ2-1-300x300.jpg2021-03-26 21:25 9k
[IMG]ذذ2-1.jpg2021-03-26 21:25 40k
[IMG]سس2-1-100x100.jpg2021-03-26 20:54 4k
[IMG]سس2-1-300x300.jpg2021-03-26 20:54 14k
[IMG]سس2-1.jpg2021-03-26 20:54 92k
[IMG]یس-100x100.jpg2021-03-13 21:05 4k
[IMG]یس-300x224.jpg2021-03-13 21:05 12k
[IMG]یس-600x509.jpg2021-03-13 21:05 37k
[IMG]یس.jpg2021-03-13 21:05 61k
Proudly Served by LiteSpeed Web Server at radin-system.com Port 443